Lid_Strength_Index
6 7 7 7 7 6 6 7 6 6 6 5 5 5 5 5 5 3 -0 -1 -1 -1 -1 -1 -1 -1 -1 -1 -1 -1 -1 -1 -1 -1 -1 -1 -1 -1 -1 -1 -1 -1 -1
8 8 7 6 6 7 7 7 7 7 7 6 6 6 6 6 6 3 1 1 -0 -1 -1 -2 -2 -2 -2 -2 -1 -0 -0 -0 -0 -1 -1 -0 -0 -1 -0 -0 -1 -1 -1
7 7 7 7 7 8 7 8 7 7 8 7 7 7 7 7 6 2 2 3 3 0 -0 -1 -1 -1 -2 -2 -1 -0 0 1 0 0 1 1 1 -0 1 0 -0 -0 -1
6 7 8 8 8 8 8 8 8 8 9 9 10 9 8 7 3 2 2 4 4 4 2 1 1 0 0 -0 -0 -0 0 1 1 1 1 2 2 2 1 1 1 -0 -1
6 7 8 8 8 8 9 8 9 9 10 10 9 9 9 8 4 3 4 4 4 5 5 3 2 2 2 2 2 1 1 1 1 2 2 2 2 2 2 2 1 1 -1
6 7 8 8 8 9 10 10 10 9 10 11 8 7 8 5 4 4 5 4 5 5 5 6 5 4 4 4 3 3 2 2 2 2 2 2 2 3 3 2 1 1 0
7 8 8 8 9 10 10 10 10 10 10 10 10 9 8 7 6 7 7 7 6 6 6 6 6 6 7 5 4 4 3 2 2 2 2 2 2 2 3 3 2 1 1
8 8 9 9 10 10 11 11 11 11 11 11 11 11 10 9 9 8 8 8 9 8 8 8 6 7 8 8 6 4 4 3 3 3 2 2 2 2 3 2 2 2 1
8 9 9 9 10 10 12 12 12 12 12 11 11 11 12 11 11 9 9 9 8 8 8 8 7 7 8 9 7 6 5 5 4 3 3 2 2 1 2 1 1 1 1
8 9 9 10 11 11 12 12 11 12 12 12 12 10 10 10 11 12 10 10 9 8 9 8 8 8 8 8 6 6 6 6 5 4 3 3 2 2 2 1 1 2 2
10 10 10 11 11 11 12 12 12 12 12 13 12 12 12 11 11 11 12 12 10 9 8 9 9 9 9 8 7 6 6 6 6 5 4 4 3 3 3 2 2 1 2
10 11 11 11 11 11 12 12 12 12 12 12 12 12 12 11 12 12 13 13 13 10 9 9 9 9 9 9 6 6 6 7 6 5 4 3 3 3 3 4 3 3 2
11 12 12 12 12 12 11 11 12 11 12 12 12 12 11 12 11 11 12 13 13 11 10 10 10 10 9 9 7 6 5 6 6 5 6 5 5 5 5 5 5 4 4
12 12 12 12 11 11 11 11 11 11 11 12 14 13 13 12 11 11 12 13 14 13 12 13 11 11 10 8 6 6 6 5 6 6 6 7 6 7 7 7 6 6 5
11 11 11 12 12 12 11 12 11 12 12 12 13 13 13 13 12 12 12 12 13 15 14 13 13 11 10 9 7 8 7 6 6 6 7 7 8 7 7 7 7 7 6
10 11 11 12 11 11 11 12 12 12 12 13 14 14 14 14 13 13 13 12 13 13 14 12 12 12 11 10 8 8 7 6 6 7 7 8 8 8 8 8 8 7 7
10 11 11 11 11 11 12 12 12 12 14 14 14 15 15 15 16 15 14 14 15 14 14 13 12 13 14 13 12 11 6 8 8 7 7 8 8 9 9 9 8 8 7
10 10 10 11 11 11 12 13 12 13 14 15 15 16 16 15 17 16 15 16 15 14 14 14 13 14 15 14 13 12 8 8 7 6 7 8 8 9 9 10 9 8 8
10 10 11 11 10 11 12 12 13 13 15 15 16 16 17 17 17 16 16 16 15 13 14 14 15 14 14 15 14 13 11 11 10 8 8 8 8 9 9 9 9 9 8
11 11 11 10 11 11 12 12 13 14 15 15 15 16 16 16 17 16 16 16 15 15 14 15 15 15 16 15 14 15 14 12 13 10 9 9 9 9 9 9 9 9 9
11 11 12 13 13 12 12 13 13 14 15 15 15 15 14 13 13 14 16 16 16 16 16 16 16 17 17 17 17 16 15 14 14 13 12 10 11 12 11 11 10 9 9
12 12 13 13 14 12 11 11 12 14 14 14 15 15 14 14 13 13 13 13 16 20 17 18 18 18 18 17 16 16 16 15 13 14 14 13 12 14 12 12 10 9 9
12 13 14 14 14 12 10 11 12 13 14 15 15 15 15 14 15 14 14 14 14 15 16 18 19 21 19 19 17 16 15 15 17 16 15 15 14 17 14 12 10 10 10
13 13 14 14 13 12 11 11 13 17 19 19 21 21 21 22 21 17 19 22 24 23 21 17 21 23 22 18 17 16 15 15 17 18 16 17 15 18 18 15 11 11 11
13 14 14 14 14 13 11 12 15 17 19 21 23 24 24 24 15 14 22 25 27 25 19 14 13 13 12 12 13 14 14 14 21 23 20 20 17 18 19 18 15 12 12
12 13 15 14 14 15 11 12 15 18 20 22 24 23 15 22 14 14 24 25 26 24 25 23 22 20 19 19 13 21 17 19 23 23 19 19 20 18 18 18 17 16 16